This demonstration page uses our WeatherBlox Daily Observations layout. Learn more.

Left ArrowRight Arrow

41.55636, -103.73856

Hourly Observations for October 5, 2015

Temp ( °F °C ) Dew Point ( °F °C ) Humidity (%) Winds ( mph kmh ) Pressure ( in mb ) Visibility ( mi km ) Precip ( " mm )
12:03 am 00:03 Cloudy with Mist and Fog 52 11 48 9 88 88 ESE 8 13 30.06 1018 6 9.65604 0 0
12:53 am 00:53 Cloudy with Mist and Fog 50 10 48 8.9 93 93 SE 12 19 30.06 1018 5 8.0467 0 0
1:53 am 01:53 Cloudy with Mist and Fog 50 10 49 9.4 96 96 SE 9 15 30.06 1018 5 8.0467 0 0
2:24 am 02:24 Cloudy with Mist and Fog 52 11 48 9 88 88 ESE 9 15 30.03 1017 6 9.65604 0 0
2:53 am 02:53 Cloudy with Mist and Fog 51 10.6 49 9.4 92 92 ESE 9 15 30.05 1018 6 9.65604 0 0
3:18 am 03:18 Cloudy with Mist and Fog 52 11 48 9 88 88 ESE 9 15 30.03 1017 6 9.65604 0 0
3:34 am 03:34 Cloudy with Mist and Fog 52 11 48 9 88 88 ESE 9 15 30.03 1017 6 9.65604 0 0
3:53 am 03:53 Cloudy with Mist and Fog 51 10.6 49 9.4 92 92 ESE 8 13 30.06 1018 6 9.65604 0 0
4:14 am 04:14 Cloudy 52 11 48 9 88 88 ESE 10 17 30.03 1017 7 11.26538 0 0
4:53 am 04:53 Cloudy 50 10 48 8.9 93 93 ESE 9 15 30.05 1018 8 12.87472 0 0
5:53 am 05:53 Cloudy 50 10 47 8.3 89 89 ESE 12 19 30.06 1018 10 16.0934 0 0
6:53 am 06:53 Cloudy 49 9.4 47 8.3 93 93 ESE 9 15 30.07 1018 10 16.0934 0 0
7:53 am 07:53 Cloudy 49 9.4 46 7.8 90 90 E 9 15 30.09 1019 10 16.0934 0 0
8:44 am 08:44 Cloudy 50 10 46 8 88 88 ESE 7 11 30.09 1019 10 16.0934 0 0
8:53 am 08:53 Cloudy 50 10 46 7.8 86 86 SE 7 11 30.08 1019 10 16.0934 0 0
9:53 am 09:53 Cloudy 51 10.6 47 8.3 86 86 ESE 6 9 30.09 1019 10 16.0934 0 0
10:53 am 10:53 Cloudy 54 12.2 48 8.9 80 80 SE 7 11 30.06 1018 10 16.0934 0 0
11:53 am 11:53 Cloudy 55 12.8 49 9.4 80 80 E 8 13 30.05 1018 10 16.0934 0 0
12:24 pm 12:24 Cloudy 57 14 48 9 72 72 ESE 10 17 30 1016 10 16.0934 0 0
12:53 pm 12:53 Cloudy 58 14.4 50 10 75 75 E 14 22 30.03 1017 10 16.0934 0 0
1:20 pm 13:20 Mostly Cloudy 61 16 52 11 72 72 ESE 15 24 29.94 1014 10 16.0934 0 0
1:53 pm 13:53 Partly Cloudy 61 16.1 52 11.1 72 72 ESE 13 20 30.01 1016 10 16.0934 0 0
2:53 pm 14:53 Sunny 62 16.7 52 11.1 70 70 E 15 24 29.98 1015 10 16.0934 0 0
3:53 pm 15:53 Sunny 62 16.7 52 11.1 70 70 ESE 15 24 29.97 1015 10 16.0934 0 0
4:53 pm 16:53 Sunny 60 15.6 52 11.1 75 75 E 16 26 29.99 1016 10 16.0934 0 0
5:53 pm 17:53 Sunny 57 13.9 51 10.6 81 81 E 14 22 30.03 1017 10 16.0934 0 0
6:30 pm 18:30 Mostly Cloudy 55 13 52 11 88 88 E 12 19 30 1016 8 12.87472 0 0
6:53 pm 18:53 Cloudy 56 13.3 51 10.6 84 84 E 13 20 30.06 1018 9 14.48406 0 0
7:53 pm 19:53 Cloudy 55 12.8 51 10.6 87 87 E 10 17 30.09 1019 9 14.48406 0 0
8:19 pm 20:19 Cloudy 55 12.8 51 10.6 87 87 E 8 13 30.03 1017 9 14.48406 0 0
8:53 pm 20:53 Cloudy 54 12.2 51 10.6 90 90 E 8 13 30.1 1019 8 12.87472 0 0
9:53 pm 21:53 Cloudy 54 12.2 51 10.6 90 90 E 6 9 30.11 1020 8 12.87472 0 0
10:53 pm 22:53 Cloudy 54 12.2 51 10.6 90 90 ENE 6 9 30.11 1020 8 12.87472 0 0
11:53 pm 23:53 Cloudy 54 12.2 51 10.6 90 90 ESE 6 9 30.11 1020 8 12.87472 0 0

Powered by AerisWeather